[ hide orbit diagram ]
For accurate long-term ephemerides, please instead use our Horizons system.This orbit viewer was implemented using two-body methods, and hence should not be used for determining accurate long-term trajectories (over several years or decades) or planetary encounter circumstances.
Orbital Elements at Epoch 2459200.5 (2020-Dec-17.0) TDB
Reference: JPL 19 (heliocentric ecliptic J2000)
Element | Value | Uncertainty (1-sigma) | Units |
e | .01129458749480789 | 5.4002e-08 | |
a | 3.018873092942213 | 2.5894e-08 | au |
q | 2.984776166658256 | 1.6387e-07 | au |
i | 1.825933606393781 | 5.1626e-06 | deg |
node | 147.9895984558543 | 0.0001587 | deg |
peri | 234.2517912502352 | 0.00025756 | deg |
M | 64.57154583874082 | 0.00020024 | deg |
tp | 2458856.859458677708 (2020-Jan-08.35945868) | 0.0010666 | TDB |
period | 1915.868565156801 5.25 | 2.4649e-05 6.749e-08 | d yr |
n | .1879043304677513 | 2.4176e-09 | deg/d |
Q | 3.05297001922617 | 2.6186e-08 | au |
|
| | Orbit Determination Parameters
Additional Information
|
[ hide covariance matrix ]
Orbital Elements at Epoch 2456943.5 (2014-Oct-13.0) TDB
Reference: JPL 19 (heliocentric ecliptic J2000)
Element | Value | Uncertainty (1-sigma) | Units |
e | .01152778260787549 | 5.5721e-08 | |
q | 2.98294339782402 | 1.6769e-07 | au |
tp | 2456841.142344940464 (2014-Jul-02.64234494) | 0.0010005 | TDB |
node | 148.0371985797528 | 0.00015863 | deg |
peri | 215.460655319499 | 0.00024657 | deg |
i | 1.825592784558139 | 5.1688e-06 | deg |
|
| | Orbit Determination Parameters
Additional Information
|
Orbit Covariance (6×6)
|
|
e |
q |
tp |
node |
peri |
i |
e |
3.104871864528912E-15 |
-9.236167943893662E-15 |
3.849328244678812E-13 |
1.907594161616104E-14 |
-2.092578319844436E-14 |
-1.352408744708554E-16 |
q |
-9.236167943893662E-15 |
2.812144345000256E-14 |
-6.266065523495995E-12 |
-5.333767690941484E-14 |
-9.010307434592236E-13 |
7.082108222347516E-16 |
tp |
3.849328244678812E-13 |
-6.266065523495995E-12 |
1.001037782885998E-6 |
-1.848331757063698E-10 |
1.888927884102475E-7 |
-7.174941357276905E-12 |
node |
1.907594161616104E-14 |
-5.333767690941484E-14 |
-1.848331757063698E-10 |
2.516347618179099E-8 |
-2.518567714099128E-8 |
2.79704009925465E-10 |
peri |
-2.092578319844436E-14 |
-9.010307434592236E-13 |
1.888927884102475E-7 |
-2.518567714099128E-8 |
6.079530758494545E-8 |
-2.809077516109021E-10 |
i |
-1.352408744708554E-16 |
7.082108222347516E-16 |
-7.174941357276905E-12 |
2.79704009925465E-10 |
-2.809077516109021E-10 |
2.671642656288924E-11 |
|
Physical Parameter Table
Parameter |
Symbol |
Value |
Units |
Sigma |
Reference |
Notes |
absolute magnitude |
H |
15.4 |
|
n/a |
MPO453643 |
|
diameter |
diameter |
5.024 |
km |
0.321 |
urn:nasa:pds:neowise_diameters_albedos::2.0[mainbelt] (http://adsabs.harvard.edu/abs/2011ApJ...741...68M) |
|
geometric albedo |
albedo |
0.053 |
|
0.013 |
urn:nasa:pds:neowise_diameters_albedos::2.0[mainbelt] (http://adsabs.harvard.edu/abs/2011ApJ...741...68M) |
|
|
117321 (2004 VU64) Discovered 2004-Nov-10 by Spacewatch at Kitt Peak |
Reference: 20051019/Numbers.arc | Last Updated: 2005-10-26 |
|
[ hide close-approach data ]
Close-Approach Data ...sorted by Date/Time (TDB)
|
Date/Time (TDB) |
Time Uncertainty (days_HH:MM) |
Body |
Nominal Distance (au) |
Minimum Distance (au) |
Maximum Distance (au) |
V-relative (km/s) |
V-infinity (km/s) |
JD (TDB) |
Time Uncertainty (minutes) |
Semi-major axis (km) |
Semi-minor axis (km) |
range-LOV angle (deg) |
N-sigma |
BP |
Orbit Ref. |
Reference |
Modified |
1904-Jul-18 12:12 |
00:04 |
Jupiter |
1.98966810230825 |
1.98966758224734 |
1.98966862236973 |
3.78769970511724 |
3.67358791149128 |
2416680.008038585 |
4.20051220100876 |
211.02332430853 |
20.0780697507138 |
88.250423219315 |
2952300.79329988 |
T |
19 |
CATAB v2.0f-lin.ifort 2021-Feb-24 09:16:25 |
2021-Feb-24 09:16 |
1951-Jul-21 10:09 |
00:02 |
Jupiter |
1.98926459201565 |
1.98926408128692 |
1.98926510274427 |
3.78212806327213 |
3.66781938878088 |
2433848.923257024 |
2.41505578124215 |
130.477050304505 |
20.3327355458091 |
-88.9581486644389 |
2903928.16758256 |
T |
19 |
CATAB v2.0f-lin.ifort 2021-Feb-24 09:16:25 |
2021-Feb-24 09:16 |
2130-Apr-11 16:59 |
00:04 |
Jupiter |
1.99117531814423 |
1.99117479931878 |
1.99117583697025 |
3.7841726029462 |
3.67003894494465 |
2499127.207621356 |
4.3695381511197 |
200.130127311594 |
19.8124616189816 |
87.827926007691 |
2997172.27145512 |
T |
19 |
CATAB v2.0f-lin.ifort 2021-Feb-24 09:16:25 |
2021-Feb-24 09:16 |
2177-Apr-13 22:45 |
00:06 |
Jupiter |
1.99016237933768 |
1.99016186080501 |
1.99016289787103 |
3.78878228904077 |
3.67473288554219 |
2516296.447691279 |
6.15363191042024 |
310.959041710876 |
20.4029342294372 |
-89.1722175961543 |
2909604.68841415 |
T |
19 |
CATAB v2.0f-lin.ifort 2021-Feb-24 09:16:25 |
2021-Feb-24 09:16 |
|
Alternate Designations
2004 VU64 = 1993 TC24 = 2003 RP26 = 2003 RZ2 |
|
|